Location: Alessandria
(44.9000°N, 8.6170°E)
Time: 18:24:33
(UTC+02:00)

ISS - Pass Details

Date: 14 May 2021
Orbit: 417 x 422 km, 51.6° (Epoch: 18 June)

Event Time Altitude Azimuth Distance (km) Brightness Sun altitude
Exits shadow 02:50:22 - 303° (WNW) 1,812 -0.4 -23.3°
Reaches altitude 10° 02:51:12 10° 308° (NW) 1,508 -0.8 -23.3°
Maximum altitude 02:54:11 28° 10° (N) 825 -1.6 -23.1°
Drops below altitude 10° 02:57:10 10° 72° (ENE) 1,508 -0.4 -22.9°
Sets 02:59:28 0° 84° (E) 2,373 0.5 -22.7°
